Preview of NWS' New Version of Forecast
This preview is not operational and should not be used for support decisions.

Regional Weather Roundup (RWR)

Issued by National Weather Service (NWS)

                            
000
ASUS43 KDTX 210410
RWRMI 
MICHIGAN HOURLY REGIONAL WEATHER ROUNDUP
NATIONAL WEATHER SERVICE DETROIT/PONTIAC MI
1200 AM EDT THU MAR 21 2019

NOTE: "FAIR" INDICATES FEW OR NO CLOUDS BELOW 12,000 FEET WITH NO
SIGNIFICANT WEATHER AND/OR OBSTRUCTION TO VISIBILITY.

MIZ047>049-052>055-059>063-066>070-074>076-081>083-210500-
SOUTHEAST LOWER MICHIGAN
  
CITY           SKY/WX    TMP DP  RH WIND       PRES   REMARKS
ADRIAN         CLOUDY    39  37  92 SW8       29.93F WCI  33          
ALMA           FOG       33  32  96 CALM      29.92F VSB 1            
ANN ARBOR      CLOUDY    39  38  96 S10       29.93S FOG     WCI  32  
BAD AXE        CLOUDY    36  35  95 SE6       29.94F FOG     WCI  31  
CARO           LGT RAIN  37  36  96 CALM      29.92F                  
DETROIT CITY   CLOUDY    40  37  89 S13       29.96F WCI  32          
DETROIT        CLOUDY    40  36  86 S14       29.95F WCI  32          
FLINT          LGT RAIN  38  37  97 CALM      29.93S FOG              
GROSSE ILE     CLOUDY    38  37  94 S8        29.95F WCI  32          
HILLSDALE      LGT RAIN  40  37  91 S6        29.90S                  
HOWELL         RAIN      39  37  94 S5        29.91F                  

CITY           SKY/WX    TMP DP  RH WIND       PRES   REMARKS
JACKSON        CLOUDY    40  39  97 S6        29.90F FOG              
LAMBERTVILLE   CLOUDY    41  39  91 S6        29.94F                  
LANSING        LGT RAIN  37  37 100 CALM      29.92S FOG              
LAPEER         LGT RAIN  38  38  99 SE3       29.94F                  
MASON          LGT RAIN  38  37  96 CALM      29.91F                  
MONROE         CLOUDY    40  39  97 S12G17    29.94F WCI  33          
MT. CLEMENS    CLOUDY    39  39 100 S14       29.94F WCI  30          
PONTIAC        LGT RAIN  39  39 100 S7        29.91F FOG     WCI  34  
PORT HOPE        N/A     36  34  92 SE10      29.95F WCI  28          
PORT HURON     LGT RAIN  39  36  87 SE6       29.98F WCI  35          
TRI CITIES     CLOUDY    36  35  96 E3        29.93F FOG              
MIDLAND        CLOUDY    35  33  95 E3        29.92F FOG              
TROY           DRIZZLE   40  37  86 S10       29.96F WCI  34          
SAGINAW HB     DRIZZLE   37  37 100 CALM      29.93S                  
$$
MIZ043>046-050>051-056>058-064>065-071>073-077>080-210500-
SOUTHWEST LOWER MICHIGAN
  
CITY           SKY/WX    TMP DP  RH WIND       PRES   REMARKS
BATTLE CREEK   CLOUDY    39  38  96 CALM      29.90F FOG              
BENTON HARBOR  FOG       39  37  92 CALM      29.89F VSB 1/4          
BIG RAPIDS     LGT SNOW  33  33 100 CALM      29.91S                  
COLDWATER      RAIN      41  41 100 SW5       29.90F                  
FREMONT        FOG       34  34 100 E5        29.91S VSB 1/4 WCI  30  
HOLLAND        FOG       38  36  92 CALM      29.91S VSB 1/2          
GRAND RAPIDS   LGT RAIN  35  35 100 CALM      29.90F VSB 1            
IONIA          FOG       34  33  96 CALM      29.90F VSB 1/4          
KALAMAZOO      CLOUDY    40  39  97 S3        29.90S FOG              
LUDINGTON      CLOUDY    35  34  96 E3        29.91S FOG              
MARSHALL       RAIN      39  39 100 CALM      29.90F                  
MOUNT PLEASANT CLOUDY    33  32  95 CALM      29.92S FOG              
MUSKEGON       FOG       35  33  92 E3        29.91F VSB 1/2          
SOUTH HAVEN    FOG       37  36  95 CALM      29.90S VSB 1/4          
$$
MIZ016>042-210500-
NORTHERN LOWER MICHIGAN
  
CITY           SKY/WX    TMP DP  RH WIND       PRES   REMARKS
ALPENA         CLOUDY    34  33  96 SE3       29.97S                  
BEAVER ISLAND  LGT RAIN  34  34 100 CALM      29.96S                  
BELLAIRE       LGT SNOW  35  34  94 CALM      29.95S                  
CADILLAC       LGT SNOW  34  33  94 CALM      29.90S                  
CHARLEVOIX     LGT RAIN  37  36  96 CALM      29.98S                  
FRANKFORT      LGT RAIN  38  34  85 CALM      29.93S                  
GAYLORD        LGT SNOW  32  31  96 CALM      29.92F FOG              
GRAYLING       MIX PCPN  32  32 100 CALM      29.92S FOG              
HARBOR SPRINGS LGT RAIN  36  35  96 N3        29.95S                  
HOUGHTON LAKE  LGT SNOW  33  31  92 E3        29.92F FOG              
MANISTEE       LGT RAIN  33  33 100 E5        29.93R WCI  29          
OSCODA         MIX PCPN  35  35 100 CALM      29.96S                  
PELLSTON       LGT RAIN  36  34  92 E6        29.96F FOG     WCI  31  
ROGERS CITY    MIX PCPN  36  34  92 CALM      29.97S                  
TRAVERSE CITY  LGT RAIN  36  34  92 CALM      29.93S                  
$$
MIZ007>008-015-210500-
EASTERN UPPER MICHIGAN
  
CITY           SKY/WX    TMP DP  RH WIND       PRES   REMARKS
KINROSS        MIX PCPN  34  34 100 CALM      29.96S FOG              
MACKINAC ISLAN CLOUDY    35  35 100 E3        29.96S FOG              
NEWBERRY       FOG       33  31  94 SE3       29.95R VSB 1/4          
S. S. MARIE    MIX PCPN  36  35  96 CALM      29.96S FOG              
MUNISING         N/A     34  32  92 NW5       29.96R WCI  30          
$$
MIZ004>006-011>014-085-210500-
CENTRAL UPPER MICHIGAN
  
CITY           SKY/WX    TMP DP  RH WIND       PRES   REMARKS
MANISTIQUE     MIX PCPN  33  28  82 CALM      29.95R VSB 1/2          
ESCANABA       CLOUDY    34  34 100 CALM      29.96R FOG              
MENOMINEE      CLOUDY    36  36 100 N7        29.95S FOG     WCI  30  
SAWYER-GWINN   FOG       33  32  96 N6        29.95R VSB 1/2 WCI  27  
$$
MIZ001>003-009>011-084-210500-
WESTERN UPPER MICHIGAN
  
CITY           SKY/WX    TMP DP  RH WIND       PRES   REMARKS
IRON MOUNTAIN  CLOUDY    34  32  92 N9        29.95R WCI  27          
HOUGHTON       FOG       33  30  88 N7        29.99R VSB 3/4 WCI  27  
COPPER HARBOR    N/A     33  31  92 CALM      30.00S                  
IRONWOOD       CLOUDY    32  31  96 CALM      30.03R                  
$$

ABBREVIATIONS USED IN REMARKS
   TC - TEMPERATURE IN CELSIUS
  WCI - WIND CHILL INDEX
   HX - HEAT INDEX
  VSB - VISIBILITY